Location: Be?chatów
(51.3665°N, 19.3745°E)
Time: 22:34:27
(UTC+00:00)

Cosmos 1814 Rocket - Pass Details

Date: 19 May 2025
Orbit: 740 x 783 km, 74.1° (Epoch: 16 June)

Event Time Altitude Azimuth Distance (km) Brightness Sun altitude
Rises 19:46:11 0° 212° (SSW) 3,172 7.0 -9.3°
Reaches altitude 10° 19:48:33 10° 216° (SW) 2,256 6.3 -9.5°
Maximum altitude 19:53:37 64° 298° (WNW) 831 4.5 -10.0°
Drops below altitude 10° 19:58:47 10° 20° (NNE) 2,294 6.9 -10.5°
Sets 20:01:12 0° 24° (NNE) 3,231 7.7 -10.7°
